Погода в Калачах

Россия / Новосибирская область     53°35′22″N   77°52′41″E
темп.,
°C
ветер,
м/с
пор.,
м/с
влажн.,
%
обл.,
%
осадки,
мм/ч
давл.,
гПа
погр.,
м
28 ноября, вс
вс2801:00−7юз81787100 0.0 1032526
04:00−7зюз81588100 0.0 1033482
07:00−7зюз7149198 0.0 1033400
10:00−8зюз6129291 0.0 1035323
13:00−7юз6119273 0.0 1035327
16:00−7юз5109236 0.0 1036240
19:00−11юз489483 0.0 1037113
22:00−12юз369477 0.0 103877
29 ноября, пн
пн2901:00−13ююз3594100 0.0 103856
04:00−13ююз359082 0.0 103764
07:00−15ююз349030 0.0 103646
10:00−16ю229028 0.0 103624
13:00−10ю378232 0.0 1034125
16:00−10ю348488 0.0 103259
19:00−12ю3585100 0.0 103262
22:00−11ююз3683100 0.0 103180
30 ноября, вт
вт3001:00−11ююз3684100 0.0 103066
04:00−11ююз3484100 0.0 103054
07:00−13ююз2386100 0.0 102937
10:00−14ююз228577 0.0 103035
13:00−10ююз248077 0.0 102974
16:00−11ююз22865 0.0 102917
19:00−16ю22885 0.0 102913
22:00−16ю22895 0.0 102929
1 декабря, ср
ср101:00−15ю35855 0.0 102946
04:00−16ю22875 0.0 10289
07:00−14ю35855 0.0 102743
10:00−14ю23855 0.0 102734
13:00−10ю36825 0.0 102699
16:00−8ю37845 0.0 102593
19:00−13ю32905 0.0 102521
22:00−11ю47845 0.0 102475
2 декабря, чт
чт201:00−13ю34875 0.0 102343
04:00−12ю47845 0.0 102270
07:00−11ю36855 0.0 102167
10:00−11ю47865 0.0 102168
13:00−7ю398478 0.0 1019147
16:00−5ю41083100 0.0 1017144
19:00−4ююв51379100 0.0 1016178
22:00−3ю51379100 0.0 1014196